Location: Nelson
(41.2830°S, 173.2830°E)
Time: 15:41:24
(UTC+12:00)

Cosmos 1092 Rocket - Pass Details

Date: 14 May 2021
Orbit: 953 x 996 km, 83.0° (Epoch: 19 June)

Event Time Altitude Azimuth Distance (km) Brightness Sun altitude
Rises 17:46:19 0° 11° (NNE) 3,632 7.1 -5.6°
Reaches altitude 10° 17:48:51 10° 16° (NNE) 2,699 6.4 -6.0°
Maximum altitude 17:54:47 50° 90° (E) 1,233 4.2 -7.1°
Drops below altitude 10° 18:00:50 10° 162° (SSE) 2,758 6.0 -8.2°
Sets 18:03:26 0° 167° (SSE) 3,720 6.7 -8.6°
